GSAT0212 (GALILEO 16) (41860 NORAD) Tracking and Keplerian Element Data

This shows tracking and keplerian element data for the satellite.

Feedback or suggestion? Click here.




ElementValue
Catalog41860
NameGSAT0212 (GALILEO 16)
Epoch Orbit4452
Epoch Day11.68639179
Epoch Year2024
RAAN125.6811
Inclination55.0176
Eccentricity0.0001341
Argument of Perigee328.7508
Mean Anonmoly31.2107
Mean Motion1.70474765
Decay Rate7E-08
L11 41860U 16069B 24011.68639179 .00000007 00000+0 00000+0 0 9993
L22 41860 55.0176 125.6811 0001341 328.7508 31.2107 1.70474765 44521



Live tracking and technical data element details for GSAT0212 (GALILEO 16) (NORAD 41860). GSAT0212 (GALILEO 16) can be tracked NOW for your location showing map with azimuth and elevation plus other details from your city location.







IsCatalogInMostPopularTable: catalog: 41860, numindb: 735
Update: records affected: 1



GetName: 41860 GSAT0212 (GALILEO 16)

Hit Count: updated at: Fri, 19 Apr 2024 12:19:16 GMT